Stations météo

réclame
Mon MeteoGroup
Uppsala, Suède (2458): Température de l'air & dewpoint: 14.11.2018 12:00:00 - 20.11.2018 12:00:00 (CET)Uppsala, Suède (2458): Vitesse du vent & gusts: 14.11.2018 12:00:00 - 20.11.2018 12:00:00 (CET)Uppsala, Suède (2458): Direction du vent: 14.11.2018 12:00:00 - 20.11.2018 12:00:00 (CET)Uppsala, Suède (2458): reduced air pressure: 14.11.2018 12:00:00 - 20.11.2018 12:00:00 (CET)Uppsala, Suède (2458): visibility: 14.11.2018 12:00:00 - 20.11.2018 12:00:00 (CET)Uppsala, Suède (2458): Quantités de précipitations: 14.11.2018 12:00:00 - 20.11.2018 12:00:00 (CET)
Date & Time tt [°C] td [°C] ff [km/h] ff [knt] fx [km/h] fx [knt] dd ppp [hPa] vv [km] rr [mm]
20.11.2018 12:00:00 0,4 -1,5 11 6 18 10 W 1033,0 10 0,0
20.11.2018 11:00:00 -0,2 -1,6 11 6 22 12 WSW 1033,3 10 0,0
20.11.2018 10:00:00 -0,5 -1,8 8 4 7 4 W 1033,9 10 0,0
20.11.2018 09:00:00 -0,7 -1,8 4 2 7 4 WSW 1034,3 10 0,0
20.11.2018 08:00:00 -1,0 -2,0 2 1 7 4 WSW 1034,4 10 0,0
20.11.2018 07:00:00 -0,9 -1,9 5 3 7 4 SSW 1034,4 10 0,0
20.11.2018 06:00:00 -1,0 -1,9 4 2 7 4 NW 1034,8 10 0,0
20.11.2018 05:00:00 -1,5 -2,2 4 2 7 4 W 1035,4 10 0,0
20.11.2018 04:00:00 -1,8 -2,4 4 2 4 2 SSW 1036,2 21 0,0
20.11.2018 03:00:00 -2,0 -3,0 0 0 - - N - 10 -
20.11.2018 02:00:00 -2,7 -3,1 0 0 7 4 N 1037,2 10 0,0
20.11.2018 01:00:00 -2,5 -2,9 5 3 7 4 NNW 1037,8 10 0,0
20.11.2018 00:00:00 -3,5 -3,8 0 0 7 4 N 1038,5 10 0,0
19.11.2018 23:00:00 -4,0 -4,3 8 4 7 4 NW 1038,7 10 0,0
19.11.2018 22:00:00 -4,4 -4,8 0 0 0 0 N 1038,8 10 0,0
19.11.2018 21:00:00 -3,7 -4,1 0 0 0 0 N 1039,2 10 0,0
19.11.2018 20:00:00 -3,1 -3,8 0 0 0 0 N 1039,2 10 0,0
19.11.2018 19:00:00 -2,4 -3,4 0 0 7 4 N 1039,3 10 0,0
19.11.2018 18:00:00 -1,1 -3,1 4 2 14 8 NNE 1039,3 10 0,0
19.11.2018 17:00:00 1,1 -2,7 8 4 14 8 N 1039,4 10 0,0
19.11.2018 16:00:00 1,4 -2,5 8 4 14 8 NNE 1039,7 10 0,0
19.11.2018 15:00:00 1,7 -2,1 8 4 14 8 ESE 1039,7 10 0,0
19.11.2018 14:00:00 1,9 -2,1 11 6 18 10 NE 1039,8 10 0,0
19.11.2018 13:00:00 2,1 -2,0 13 7 22 12 NE 1040,0 10 0,0
19.11.2018 12:00:00 2,2 -1,2 9 5 14 8 NNE 1040,4 10 0,0
19.11.2018 11:00:00 2,0 -0,7 11 6 18 10 NNE 1040,5 10 0,0
19.11.2018 10:00:00 1,9 -0,8 8 4 14 8 NE 1040,5 10 0,0
19.11.2018 09:00:00 1,7 -1,0 11 6 14 8 NE 1040,3 10 0,0
19.11.2018 08:00:00 1,6 -1,1 9 5 22 12 NE 1040,2 10 0,0
19.11.2018 07:00:00 1,8 -1,6 18 10 25 14 ENE 1039,9 10 0,0
19.11.2018 06:00:00 2,0 -1,3 18 10 25 14 ENE 1039,7 10 0,0
19.11.2018 05:00:00 2,3 -1,3 16 9 29 16 ENE 1039,5 10 0,0
19.11.2018 04:00:00 2,6 -1,0 15 8 32 18 NE 1039,7 10 0,0
19.11.2018 03:00:00 2,6 -1,0 16 9 29 16 NE 1039,8 10 0,0
19.11.2018 02:00:00 2,7 -1,1 16 9 25 14 NE 1039,9 10 0,0
19.11.2018 01:00:00 2,7 -1,3 21 11 29 16 NE 1039,8 10 0,0
19.11.2018 00:00:00 2,6 -0,8 16 9 29 16 NE 1040,1 10 0,0
18.11.2018 23:00:00 2,7 -1,1 21 11 40 21 NE 1040,2 10 0,0
18.11.2018 22:00:00 3,2 -0,6 18 10 36 19 NE 1040,3 10 0,0
18.11.2018 21:00:00 3,4 -0,4 26 14 40 21 NE 1040,3 10 0,0
18.11.2018 20:00:00 3,4 0,1 21 11 32 18 NNE 1040,4 10 0,0
18.11.2018 19:00:00 3,6 0,1 22 12 40 21 NNE 1040,5 10 0,0
18.11.2018 18:00:00 3,8 0,1 26 14 43 23 NNE 1040,6 10 0,0
18.11.2018 17:00:00 4,1 0,4 21 11 40 21 NNE 1040,7 10 0,0
18.11.2018 16:00:00 4,6 1,3 18 10 40 21 N 1040,6 10 0,0
18.11.2018 15:00:00 5,1 1,6 18 10 40 21 N 1040,6 10 0,0
18.11.2018 14:00:00 5,6 2,1 22 12 43 23 NNE 1040,4 10 0,0
18.11.2018 13:00:00 5,8 2,4 24 13 43 23 NNE 1040,6 10 0,0
18.11.2018 12:00:00 5,8 3,1 21 11 32 18 N 1040,5 10 0,0
18.11.2018 11:00:00 5,9 3,2 16 9 29 16 N 1040,3 10 0,0
18.11.2018 10:00:00 5,8 3,5 16 9 29 16 NNE 1040,3 10 0,0
18.11.2018 09:00:00 5,7 3,5 21 11 32 18 NNE 1040,0 10 0,0
18.11.2018 08:00:00 5,7 3,4 21 11 36 19 N 1039,7 10 0,0
18.11.2018 07:00:00 5,2 3,5 16 9 32 18 NNE 1039,2 10 0,0
18.11.2018 06:00:00 4,0 2,7 18 10 32 18 N 1039,0 10 0,0
18.11.2018 05:00:00 2,9 1,9 18 10 25 14 N 1038,9 10 0,0
18.11.2018 04:00:00 2,6 1,7 16 9 22 12 N 1038,6 10 0,0
18.11.2018 03:00:00 3,0 2,0 16 9 22 12 N 1038,6 10 0,0
18.11.2018 02:00:00 3,2 2,2 16 9 25 14 N 1038,3 10 0,0
18.11.2018 01:00:00 2,9 2,0 11 6 18 10 NNW 1038,1 10 0,0
18.11.2018 00:00:00 2,9 2,0 13 7 22 12 N 1038,0 10 0,0
17.11.2018 23:00:00 2,0 1,0 8 4 - - NNW - 10 -
17.11.2018 22:00:00 1,4 1,3 8 4 11 6 NW 1037,6 10 0,0
17.11.2018 21:00:00 2,3 2,2 9 5 11 6 NW 1037,2 10 0,0
17.11.2018 20:00:00 1,7 1,7 5 3 7 4 WNW 1037,2 10 0,0
17.11.2018 19:00:00 2,3 2,3 8 4 11 6 NW 1037,3 9 0,0
17.11.2018 18:00:00 0,9 0,8 2 1 7 4 - 1037,2 2,2 0,0
17.11.2018 17:00:00 2,3 2,0 0 0 7 4 N 1037,4 8 0,0
17.11.2018 16:00:00 3,5 2,9 4 2 7 4 WSW 1037,5 10 0,0
17.11.2018 15:00:00 5,1 3,9 5 3 7 4 W 1037,8 10 0,0
17.11.2018 14:00:00 6,4 5,0 5 3 7 4 NW 1037,9 10 0,0
17.11.2018 13:00:00 6,1 4,7 5 3 11 6 WNW 1038,2 10 0,0
17.11.2018 12:00:00 6,3 4,6 8 4 7 4 W 1038,3 10 0,0
17.11.2018 11:00:00 6,1 4,4 8 4 14 8 W 1038,4 10 0,0
17.11.2018 10:00:00 5,6 4,6 4 2 11 6 - 1037,9 10 0,0
17.11.2018 09:00:00 3,8 3,1 5 3 11 6 WSW 1038,2 10 0,0
17.11.2018 08:00:00 4,9 3,7 4 2 14 8 - 1037,9 10 0,0
17.11.2018 07:00:00 5,3 4,0 7 4 18 10 WSW 1037,2 20 0,0
17.11.2018 06:00:00 5,0 4,0 13 7 - - SW - 10 -
17.11.2018 05:00:00 5,4 3,9 13 7 18 10 SW 1037,1 10 0,0
17.11.2018 04:00:00 5,9 4,2 15 8 18 10 WSW 1037,0 10 0,0
17.11.2018 03:00:00 5,5 4,0 11 6 18 10 SW 1037,4 10 0,0
17.11.2018 02:00:00 5,5 3,7 11 6 22 12 SW 1037,0 10 0,0
17.11.2018 01:00:00 6,3 4,1 11 6 18 10 SW 1037,1 10 0,0
17.11.2018 00:00:00 5,9 3,9 13 7 22 12 WSW 1037,0 10 0,0
16.11.2018 23:00:00 6,2 4,0 15 8 22 12 WSW 1036,4 10 0,0
16.11.2018 22:00:00 6,6 4,4 13 7 29 16 WSW 1036,8 10 0,0
16.11.2018 21:00:00 6,6 4,8 13 7 32 18 WSW 1036,6 10 0,0
16.11.2018 20:00:00 6,7 4,9 16 9 25 14 SW 1036,2 10 0,0
16.11.2018 19:00:00 6,1 4,4 15 8 25 14 WSW 1036,0 10 0,0
16.11.2018 18:00:00 6,1 4,4 16 9 25 14 SW 1035,3 10 0,0
16.11.2018 17:00:00 6,3 4,6 15 8 22 12 WSW 1035,4 10 0,0
16.11.2018 16:00:00 6,3 4,6 11 6 25 14 SW 1035,0 10 0,0
16.11.2018 15:00:00 7,2 4,8 18 10 36 19 SW 1034,6 10 0,0
16.11.2018 14:00:00 7,9 5,4 18 10 32 18 SW 1034,2 10 0,0
16.11.2018 13:00:00 7,9 5,5 22 12 32 18 SW 1034,3 10 0,0
16.11.2018 12:00:00 7,9 5,7 18 10 32 18 SW 1034,5 10 0,0
16.11.2018 11:00:00 8,1 6,1 16 9 32 18 WSW 1034,4 10 0,0
16.11.2018 10:00:00 8,1 6,4 16 9 25 14 WSW 1034,2 10 0,0
16.11.2018 09:00:00 7,8 6,4 15 8 22 12 SSW 1033,6 10 0,0
16.11.2018 08:00:00 7,3 6,4 15 8 22 12 SW 1033,1 10 0,0
16.11.2018 07:00:00 7,0 6,3 15 8 22 12 SW 1032,6 10 0,0
16.11.2018 06:00:00 7,1 6,4 15 8 29 16 SW 1032,4 10 0,0
16.11.2018 05:00:00 7,5 6,6 15 8 29 16 SW 1031,8 10 0,0
16.11.2018 04:00:00 7,3 6,4 16 9 25 14 SW 1031,5 10 0,0
16.11.2018 03:00:00 7,7 6,6 16 9 22 12 SW 1031,3 10 0,0
16.11.2018 02:00:00 7,9 7,0 15 8 25 14 SW 1031,0 10 0,0
16.11.2018 01:00:00 8,9 7,7 15 8 25 14 SW 1030,4 10 0,0
16.11.2018 00:00:00 10,0 8,0 13 7 - - SW - 10 -
15.11.2018 23:00:00 9,7 8,8 13 7 22 12 SW 1029,5 9 0,0
15.11.2018 22:00:00 9,6 9,0 15 8 22 12 SW 1029,3 4,4 0,0
15.11.2018 21:00:00 9,9 9,1 16 9 25 14 SW 1029,0 6 0,0
15.11.2018 20:00:00 9,9 9,1 13 7 25 14 SW 1028,4 9 0,0
15.11.2018 19:00:00 9,8 9,2 16 9 25 14 SW 1027,9 9 0,0
15.11.2018 18:00:00 9,7 9,1 16 9 25 14 SW 1027,6 10 0,0
15.11.2018 17:00:00 9,7 9,1 18 10 29 16 SW 1027,4 10 0,0
15.11.2018 16:00:00 9,2 8,7 18 10 25 14 SSW 1027,0 8 0,0
15.11.2018 15:00:00 9,1 8,5 15 8 25 14 SSW 1026,9 10 0,0
15.11.2018 14:00:00 9,2 8,1 16 9 25 14 SSW 1026,4 10 0,0
15.11.2018 13:00:00 9,3 7,9 16 9 25 14 SW 1026,1 10 0,0
15.11.2018 12:00:00 9,2 7,8 18 10 25 14 SSW 1025,9 10 0,0
15.11.2018 11:00:00 8,8 7,6 18 10 25 14 SSW 1025,9 10 0,0
15.11.2018 10:00:00 8,3 7,2 16 9 25 14 SSW 1025,6 10 0,0
15.11.2018 09:00:00 7,6 7,0 16 9 25 14 SSW 1025,3 10 0,0
15.11.2018 08:00:00 7,3 7,0 15 8 25 14 SSW 1025,2 10 0,0
15.11.2018 07:00:00 6,9 6,6 14 8 22 12 SSW 1025,1 10 0,0
15.11.2018 06:00:00 6,5 6,2 15 8 22 12 SW 1025,0 10 0,0
15.11.2018 05:00:00 6,6 6,2 15 8 25 14 SW 1024,8 10 0,0
15.11.2018 04:00:00 6,8 6,1 18 10 25 14 SW 1025,0 10 0,0
15.11.2018 03:00:00 6,7 6,0 16 9 25 14 SW 1024,8 10 0,0
15.11.2018 02:00:00 6,1 5,2 13 7 18 10 SSW 1024,4 10 0,0
15.11.2018 01:00:00 6,9 5,4 13 7 18 10 SW 1024,6 10 0,0
15.11.2018 00:00:00 6,8 5,0 5 3 22 12 WSW 1024,7 10 0,0
14.11.2018 23:00:00 7,0 4,8 11 6 22 12 WSW 1024,5 10 0,0
14.11.2018 22:00:00 6,7 5,0 21 11 29 16 WSW 1023,9 10 0,0
14.11.2018 21:00:00 6,9 5,5 13 7 18 10 SW 1023,5 10 0,0
14.11.2018 20:00:00 6,4 5,2 5 3 11 6 SW 1023,2 10 0,0
14.11.2018 19:00:00 6,3 4,9 8 4 14 8 WSW 1023,1 10 0,0
14.11.2018 18:00:00 5,9 4,8 5 3 11 6 SSW 1022,9 10 0,0
14.11.2018 17:00:00 7,1 4,9 9 5 14 8 W 1022,6 10 0,0
14.11.2018 16:00:00 7,3 4,9 11 6 25 14 W 1022,2 10 0,0
14.11.2018 15:00:00 7,4 5,2 13 7 18 10 W 1022,0 10 0,0
14.11.2018 14:00:00 7,5 5,5 11 6 25 14 WSW 1021,6 10 0,0
14.11.2018 13:00:00 - - - - - - - - - -
14.11.2018 12:00:00 7,6 5,9 13 7 18 10 WSW 1020,8 10 0,0

tt = Température de l'air
td = dewpoint
ff = Vitesse du vent
fx = gusts
dd = Direction du vent
ppp = reduced air pressure
vv = visibility
rr = Quantités de précipitations

stations d'obs. à proximité